Webcams

EDPO Webcam Blick Richtung Osten (local time)

Webcam

Info zum Bild:

  • Blick zum Kloster Mariahilf, Entfernung ca. 3km
  • Blick zur Kirche St. Johannes, Entfernung ca. 1km
  • Blick zu den beiden Windrädern, Entfernung ca. 6km

EDPO Webcam Blick Richtung Westen (local time)

Webcam

Info zum Bild:

  • Blick zum Tyrolsberg, Entfernung ca. 3,5km

Dillberg Webcam Blick Richtung Westen zum Sender (local time)

Webcam

Info zum Bild:

  • Blick zum Dillberg Sender, Entfernung ca. 0,6 km
  • Höhe 2.716 ft über MSL Hindernis Höhe Sender (laut ICAO Karte)
  • Höhe 1.322 ft über EDPO Höhe Sender
  • Nord Platzrundenhöhe EDPO 2.200 ft

Dillberg Webcam Blick Richtung Osten zu EDPO (local time)

Webcam

Info zum Bild:

  • Blick vom Dillberg Richtung Neumarkt, Höhe 555ft über EDPO

Nürnberger Fernsehturm (Rundum CAM)


METAR Informationen der nächstgelegenen Flughäfen


EDDN / Flughafen Nürnberg „Albrecht Dürer“

EDDN 272020Z AUTO 02005KT 9999 BKN029 OVC035 M00/M04 Q1022 NOSIG

ETIC / Fliegerhorst Grafenwöhr AAF

ETIC 271955Z AUTO 00000KT 9999 OVC018 M01/M04 A3015 RMK AO2 SLP230 T10091036 $

ETIH / Fliegerhorst Hohenfels AAF

ETIH 272032Z AUTO 00000KT 9999 -FZDZ OVC015 M02/M04 A3016 RMK AO2 FZRAE00UPB00E03DZB03E12FZDZB32 OVC V BKN SLP233 $